Location: Capvern
(43.1036°N, 0.3160°E)
Time: 11:58:13
(UTC+00:00)

Cosmos 489 Rocket - Pass Details

Date: 30 May 2022
Orbit: 952 x 983 km, 74.0° (Epoch: 01 July)

Event Time Altitude Azimuth Distance (km) Brightness Sun altitude
Rises 01:30:00 0° 350° (N) 3,645 8.4 -21.7°
Reaches altitude 10° 01:33:24 10° 8° (N) 2,699 7.9 -21.4°
Maximum altitude 01:37:40 19° 51° (NE) 2,130 7.0 -21.1°
Drops below altitude 10° 01:41:56 10° 95° (E) 2,703 7.1 -20.7°
Sets 01:45:19 0° 113° (ESE) 3,652 7.6 -20.5°
